Location: Prague
(50.0830°N, 14.4670°E)
Time: 20:18:06
(UTC+01:00)

BlueWalker 3 - Pass Details

Date: 05 December 2022
Orbit: 499 x 517 km, 53.2° (Epoch: 06 February)

Event Time Altitude Azimuth Distance (km) Brightness Sun altitude
Rises 17:45:27 0° 287° (WNW) 2,630 6.6 -15.9°
Reaches altitude 10° 17:47:41 10° 291° (WNW) 1,739 5.5 -16.2°
Maximum altitude 17:51:35 62° 12° (NNE) 580 2.0 -16.8°
Enters shadow 17:52:50 39° 76° (ENE) 782 2.4 -17.0°
Exits shadow 18:27:14 -64° 109° (ESE) 12,021 8.9 -22.4°
